GEFSGL_con_maxscp_144.txt.gz
SCP
6 5 4 4 4 3 2 3 3 4 4 4 3 3 3 2 2 2 2 2 1 1 1 1 2 2 2 2 2 2 3 2 1 1 2 2 2 2 2 2 2 2 2
7 6 4 4 5 4 3 3 4 4 4 4 3 3 3 2 2 2 2 2 2 2 2 2 2 2 2 3 3 3 3 2 1 1 2 2 2 3 3 3 3 3 2
7 6 5 5 6 5 4 3 3 3 4 4 4 3 3 3 3 3 3 2 2 2 2 2 2 2 2 3 3 3 3 2 1 1 2 2 2 3 4 4 3 3 2
6 6 6 6 6 5 5 4 3 3 3 4 4 3 3 3 3 3 3 3 3 3 2 2 2 2 2 2 3 3 3 3 2 1 1 1 2 3 4 4 3 2 2
5 6 7 6 6 6 5 4 3 3 3 4 4 4 4 3 3 2 2 2 3 3 3 2 2 2 2 2 2 3 3 3 2 2 2 2 2 3 4 3 2 1 1
6 7 8 9 8 7 5 4 4 3 3 4 4 4 4 3 2 1 1 2 2 2 2 2 2 2 1 1 1 1 2 2 2 2 2 2 2 3 3 2 2 1 1
9 11 13 13 10 7 5 4 4 3 3 4 4 4 4 3 1 1 1 1 2 2 2 2 2 1 1 1 1 1 1 1 1 1 1 2 2 2 2 2 2 1 1
13 15 17 16 12 8 6 5 4 4 4 4 4 4 3 2 1 1 1 1 1 2 2 2 2 2 1 1 1 2 2 2 1 1 1 1 1 2 2 2 1 1 1
15 17 18 17 13 9 6 5 4 4 3 3 3 3 3 2 1 1 1 1 1 2 2 2 2 2 1 1 1 2 2 2 1 1 1 1 1 1 1 1 1 1 0
15 17 18 17 14 10 6 4 4 3 3 3 3 3 3 2 2 1 1 1 2 2 3 2 2 1 1 1 1 1 1 1 1 1 1 0 0 0 0 1 1 0 0
15 16 16 15 13 9 6 5 4 4 3 3 3 4 3 3 2 1 0 1 1 2 3 2 2 1 0 0 1 1 1 1 2 2 1 0 0 0 0 0 0 0 0
16 16 14 13 10 8 6 5 5 4 4 4 4 4 4 3 2 1 0 0 1 1 2 2 1 0 0 0 0 0 0 1 2 2 1 0 0 0 0 0 0 0 0
15 14 12 10 8 7 7 6 5 5 4 4 4 4 4 3 2 1 0 0 0 0 1 1 0 0 0 0 0 0 0 1 1 1 1 0 0 0 0 0 0 0 0
11 10 10 9 8 7 7 6 5 5 4 4 4 4 3 3 2 1 1 0 0 0 0 0 0 0 0 0 0 0 0 0 0 0 0 0 0 0 0 0 0 0 0
8 7 7 7 6 6 6 5 4 4 3 3 3 3 3 2 2 1 1 0 0 0 0 1 1 0 0 0 0 0 0 0 0 0 0 0 0 0 0 0 0 0 0
6 5 5 4 5 5 5 4 3 2 1 1 1 2 2 1 1 1 0 0 0 0 0 1 1 1 1 0 0 0 0 0 0 0 0 0 0 0 0 0 0 0 0
5 4 3 3 3 4 4 4 3 2 1 0 0 1 1 0 0 0 0 0 0 0 0 0 1 1 1 1 0 0 0 0 0 0 0 0 0 0 0 0 0 0 0
3 3 3 3 3 3 3 3 3 2 2 1 0 0 0 0 0 0 0 0 0 0 0 0 0 0 0 0 0 0 0 0 0 0 0 0 0 0 0 0 0 0 0
3 2 2 3 3 2 2 2 2 2 2 2 1 0 0 0 0 0 0 0 0 0 0 0 0 0 0 0 0 0 0 0 0 0 0 0 0 0 0 0 0 0 0
2 2 2 2 2 2 2 2 1 2 2 2 1 1 0 0 0 0 0 0 0 0 0 0 0 0 0 0 0 0 0 0 0 0 0 0 0 0 0 0 0 0 0
2 2 1 1 2 2 2 1 1 1 1 2 1 1 0 0 0 0 0 0 0 0 0 0 0 0 0 0 0 0 0 0 0 0 0 0 0 0 0 0 0 0 0
2 2 1 1 1 1 1 1 1 1 1 1 1 0 0 0 0 0 0 0 0 0 0 0 0 0 0 0 0 0 0 0 0 0 0 0 0 0 0 0 0 0 0
2 2 1 1 1 1 1 0 0 0 0 1 0 0 0 0 0 0 0 0 0 0 0 0 0 0 0 0 0 0 0 0 0 0 0 0 0 0 0 0 0 0 0
2 1 1 1 1 1 0 0 0 0 0 0 0 0 0 0 0 0 0 0 0 0 0 0 0 0 0 0 0 0 0 0 0 0 0 0 0 0 0 0 0 0 0
2 2 2 1 1 1 0 0 0 0 0 0 0 0 0 0 0 0 0 0 0 0 0 0 0 0 0 0 0 0 0 0 0 0 0 0 0 0 0 0 0 0 0
2 2 2 2 1 1 1 0 0 0 0 0 0 0 0 0 0 0 0 0 0 0 0 0 0 0 0 0 0 0 0 0 0 0 0 0 0 0 0 0 0 0 0

GEFSGL_con_maxscp_150.txt.gz
SCP
6 5 3 1 1 1 1 1 1 1 1 2 2 1 1 1 2 2 2 1 1 1 1 1 1 0 0 0 1 1 1 1 0 0 0 0 0 0 0 0 0 0 0
7 5 3 2 1 1 1 1 1 1 2 2 2 1 1 2 2 3 2 2 2 1 1 1 1 1 1 1 1 1 1 1 1 0 0 0 0 0 0 0 0 0 0
5 4 3 2 1 1 1 1 1 2 2 2 2 2 2 2 2 3 2 2 2 2 2 2 1 1 1 1 1 1 1 1 1 1 1 0 0 0 0 0 0 0 0
4 3 3 2 2 1 1 2 2 2 2 2 2 2 2 2 2 2 2 3 2 2 2 2 2 2 1 1 1 1 1 1 1 1 1 1 0 0 0 0 0 0 0
3 3 3 2 2 2 2 2 2 2 2 2 2 2 2 2 2 2 3 3 2 2 2 2 2 1 1 1 1 1 1 1 1 1 1 1 0 0 0 0 0 0 0
3 3 3 2 3 3 4 3 3 2 2 2 2 2 2 2 2 2 2 2 2 1 1 1 1 1 1 1 0 0 1 1 1 1 1 1 0 0 0 0 0 0 0
3 3 3 3 4 5 5 4 3 2 2 2 2 2 2 2 1 1 1 1 1 0 0 0 0 1 0 0 0 0 0 0 0 0 0 0 0 0 0 0 0 0 0
4 4 4 4 6 6 6 4 3 2 2 2 2 2 2 1 1 1 0 0 0 0 0 0 0 0 0 0 0 0 0 0 0 0 0 0 0 0 0 0 0 0 0
4 4 5 6 7 7 6 4 3 2 1 1 1 1 1 1 1 0 0 0 0 0 0 0 0 0 0 0 0 0 0 0 0 0 0 0 0 0 0 0 0 0 0
4 5 6 8 8 7 6 4 2 1 1 1 1 1 1 1 1 0 0 0 0 0 0 0 0 0 0 0 0 0 0 0 0 0 0 0 0 0 0 0 0 0 0
5 6 7 8 8 7 5 3 2 1 1 1 1 1 1 1 1 0 0 0 0 0 0 0 0 0 0 0 0 0 0 0 0 0 0 0 0 0 0 0 0 0 0
5 6 7 8 8 6 5 3 2 2 2 2 1 1 1 1 1 0 0 0 0 0 0 0 0 0 0 0 0 0 0 0 0 0 0 0 0 0 0 0 0 0 0
5 6 7 7 7 5 4 3 2 2 2 3 3 2 2 1 1 0 0 0 0 0 0 0 0 0 0 0 0 0 0 0 0 0 0 0 0 0 0 0 0 0 0
6 6 6 6 5 4 3 2 2 2 2 3 3 3 2 1 1 1 0 0 0 0 0 0 0 0 0 0 0 0 0 0 0 0 0 0 0 0 0 0 0 0 0
6 6 5 4 3 2 1 1 1 1 1 1 1 1 1 1 1 1 0 0 0 0 0 0 0 0 0 0 0 0 0 0 0 0 0 0 0 0 0 0 0 0 0
4 4 3 2 2 1 1 0 0 0 0 0 0 0 1 0 0 0 0 0 0 0 0 0 0 0 0 0 0 0 0 0 0 0 0 0 0 0 0 0 0 0 0
3 2 2 1 1 1 0 0 0 0 0 0 0 0 0 0 0 0 0 0 0 0 0 0 0 0 0 0 0 0 0 0 0 0 0 0 0 0 0 0 0 0 0
2 2 1 1 1 0 0 0 0 0 0 0 0 0 0 0 0 0 0 0 0 0 0 0 0 0 0 0 0 0 0 0 0 0 0 0 0 0 0 0 0 0 0
3 2 1 1 0 0 0 0 0 0 0 0 0 0 0 0 0 0 0 0 0 0 0 0 0 0 0 0 0 0 0 0 0 0 0 0 0 0 0 0 0 0 0
3 3 1 1 0 0 0 0 0 0 0 0 0 0 0 0 0 0 0 0 0 0 0 0 0 0 0 0 0 0 0 0 0 0 0 0 0 0 0 0 0 0 0
4 3 2 2 1 1 0 0 0 0 0 0 0 0 0 0 0 0 0 0 0 0 0 0 0 0 0 0 0 0 0 0 0 0 0 0 0 0 0 0 0 0 0
5 4 3 3 2 1 0 0 0 0 0 0 0 0 0 0 0 0 0 0 0 0 0 0 0 0 0 0 0 0 0 0 0 0 0 0 0 0 0 0 0 0 0
4 4 3 3 2 1 0 0 0 0 0 0 0 0 0 0 0 0 0 0 0 0 0 0 0 0 0 0 0 0 0 0 0 0 0 0 0 0 0 0 0 0 0
2 2 2 2 1 1 0 0 0 0 0 0 0 0 0 0 0 0 0 0 0 0 0 0 0 0 0 0 0 0 0 0 0 0 0 0 0 0 0 0 0 0 0
1 1 1 1 0 0 0 0 0 0 0 0 0 0 0 0 0 0 0 0 0 0 0 0 0 0 0 0 0 0 0 0 0 0 0 0 0 0 0 0 0 0 0
0 0 0 0 0 0 0 0 0 0 0 0 0 0 0 0 0 0 0 0 0 0 0 0 0 0 0 0 0 0 0 0 0 0 0 0 0 0 0 0 0 0 0

GEFSGL_con_maxscp_156.txt.gz
SCP
4 4 3 3 3 2 2 1 1 1 1 1 1 1 1 1 0 0 0 0 1 1 1 1 1 1 1 1 1 1 1 1 0 0 0 1 1 1 0 0 0 0 0
3 3 3 3 3 2 2 2 2 1 1 1 2 2 2 1 0 0 0 0 0 1 1 1 1 1 1 1 1 1 1 1 1 0 1 1 1 1 1 0 0 0 0
2 3 3 3 3 3 3 2 2 1 1 1 2 3 2 1 0 0 0 0 0 0 1 1 1 1 1 1 2 2 2 1 1 1 1 1 1 1 0 0 0 0 0
2 2 2 2 3 3 3 3 2 2 1 1 2 2 2 1 0 0 0 0 1 1 0 0 0 1 1 1 1 1 1 1 1 1 1 1 1 1 0 0 0 0 0
2 2 2 2 2 2 2 2 2 2 2 1 1 1 1 1 1 1 1 1 1 1 1 1 1 0 0 1 1 1 1 1 1 1 1 1 0 0 0 0 0 0 0
2 2 2 2 2 2 2 2 2 2 2 2 2 2 1 1 1 1 1 1 1 2 2 2 1 0 0 0 0 0 0 1 1 1 1 1 0 0 0 0 0 0 0
3 2 2 2 2 2 2 2 2 2 2 2 2 2 2 1 1 1 1 1 1 2 2 2 1 0 0 0 0 0 0 0 0 1 1 1 0 0 0 0 0 0 0
3 3 3 3 3 2 2 2 3 3 2 2 3 2 1 1 1 0 0 1 1 1 1 1 1 0 0 0 0 0 0 0 0 0 0 0 0 0 0 0 0 0 0
3 3 3 4 3 2 2 3 3 3 2 2 2 2 1 1 0 0 0 0 0 1 1 1 0 0 0 0 0 0 0 0 0 0 0 0 0 0 0 0 0 0 0
3 3 3 4 3 3 3 3 3 2 2 2 1 1 1 1 0 0 0 0 0 1 1 1 0 0 0 0 0 0 0 0 0 0 0 0 0 0 0 0 0 0 0
4 4 3 3 3 3 3 2 2 2 2 1 1 1 1 1 1 0 0 0 0 1 1 1 0 0 0 0 0 0 0 0 0 0 0 0 0 0 0 0 0 1 1
5 5 4 3 3 3 2 2 2 2 2 2 1 1 1 1 1 0 0 0 0 1 1 0 0 0 0 0 0 0 0 0 0 0 0 0 0 0 0 0 0 1 1
5 5 4 3 3 3 2 2 2 2 2 2 2 1 1 2 1 1 0 0 0 0 0 0 0 0 0 0 0 0 0 0 0 0 0 0 0 0 0 0 0 0 0
4 4 4 3 3 3 3 3 2 2 2 2 2 1 1 1 1 1 0 0 0 0 0 0 0 0 0 0 0 0 0 0 0 0 0 0 0 0 0 0 0 0 0
3 3 3 3 3 3 3 2 1 1 2 1 1 1 1 1 1 1 0 0 0 0 0 0 0 0 0 0 0 0 0 0 0 0 0 0 0 0 0 0 0 0 0
2 2 2 2 2 2 2 1 1 1 1 1 1 1 1 1 0 0 0 0 0 0 0 0 0 0 0 0 0 0 0 0 0 0 0 0 0 0 0 0 0 0 0
2 1 1 1 2 1 1 1 0 0 0 0 0 0 0 0 0 0 0 0 0 0 0 0 0 0 0 0 0 0 0 0 0 0 0 0 0 0 0 0 0 0 0
2 1 1 1 1 1 1 1 0 0 0 0 0 0 0 0 0 0 0 0 0 0 0 0 0 0 0 0 0 0 0 0 0 0 0 0 0 0 0 0 0 0 0
2 1 1 1 1 1 1 0 0 0 0 0 0 0 0 0 0 0 0 0 0 0 0 0 0 0 0 0 0 0 0 0 0 0 0 0 0 0 0 0 0 0 0
2 2 2 2 2 2 1 1 0 0 0 0 0 0 0 0 0 0 0 0 0 0 0 0 0 0 0 0 0 0 0 0 0 0 0 0 0 0 0 0 0 0 0
2 2 2 2 2 2 2 1 0 0 0 0 0 0 0 0 0 0 0 0 0 0 0 0 0 0 0 0 0 0 0 0 0 0 0 0 0 0 0 0 0 0 0
2 2 2 2 2 2 1 1 1 0 0 0 0 0 0 0 0 0 0 0 0 0 0 0 0 0 0 0 0 0 0 0 0 0 0 0 0 0 0 0 0 0 0
2 1 1 1 1 1 1 1 1 1 0 0 0 0 0 0 0 0 0 0 0 0 0 0 0 0 0 0 0 0 0 0 0 0 0 0 0 0 0 0 0 0 0
1 1 1 1 1 1 1 1 1 1 1 1 0 0 0 0 0 0 0 0 0 0 0 0 0 0 0 0 0 0 0 0 0 0 0 0 0 0 0 0 0 0 0
0 0 0 0 0 0 0 0 1 1 1 1 0 0 0 0 0 0 0 0 0 0 0 0 0 0 0 0 0 0 0 0 0 0 0 0 0 0 0 0 0 0 0
0 0 0 0 0 0 0 0 0 0 0 0 0 0 0 0 0 0 0 0 0 0 0 0 0 0 0 0 0 0 0 0 0 0 0 0 0 0 0 0 0 0 0

GEFSGL_con_maxscp_162.txt.gz
SCP
3 3 2 2 2 2 2 2 2 2 2 2 2 2 3 4 4 3 2 2 1 1 1 1 1 2 2 3 3 3 3 2 2 2 2 2 2 1 1 1 1 1 1
3 3 3 2 2 2 2 2 3 3 3 3 2 3 3 4 4 3 2 2 1 1 1 1 2 2 2 3 3 3 2 2 2 2 2 2 2 2 1 1 1 1 2
4 3 3 2 2 2 2 2 3 3 3 3 3 3 3 4 4 3 2 2 2 2 2 2 2 2 3 3 3 3 2 2 2 2 1 2 2 2 2 1 1 2 2
4 4 3 2 2 2 2 2 3 3 3 4 4 3 3 3 4 3 3 2 2 2 2 3 3 3 3 3 3 3 2 2 2 1 1 1 2 2 2 1 2 2 2
4 4 4 3 3 3 3 3 3 4 4 4 4 3 3 3 4 4 3 3 2 2 2 3 3 4 4 3 2 2 2 2 1 1 1 2 2 2 2 2 2 2 2
5 5 4 5 4 4 4 4 4 4 4 4 5 4 4 4 3 3 3 3 3 2 2 3 4 4 3 2 1 1 1 1 1 1 1 1 2 2 2 2 2 1 2
6 5 5 5 5 4 4 4 4 4 5 5 5 5 5 4 2 1 2 2 2 2 2 3 4 3 2 2 1 1 1 1 1 1 1 1 1 2 2 2 2 2 1
7 6 6 6 6 5 5 4 4 4 5 6 6 6 5 4 2 1 1 1 2 2 2 3 3 2 2 2 2 1 1 1 1 1 1 1 1 1 2 2 2 2 1
7 7 9 10 8 7 6 5 5 5 5 6 6 5 5 4 2 1 1 1 2 2 2 2 2 2 1 1 2 2 2 1 1 1 1 1 1 1 1 1 1 1 1
9 10 12 13 11 9 8 7 6 6 6 6 5 5 4 4 2 1 1 2 2 2 2 2 1 1 1 1 1 2 2 2 1 1 1 1 1 1 1 1 1 2 2
12 13 14 12 11 11 11 10 9 8 6 6 5 5 5 4 3 1 1 2 3 2 2 2 2 1 1 0 1 2 2 1 2 2 2 2 1 1 1 1 1 2 2
12 13 12 11 11 12 14 14 12 9 7 6 5 5 5 5 3 2 1 1 2 2 2 2 2 1 0 0 0 1 1 1 2 2 2 3 3 2 2 1 1 1 2
10 10 10 10 10 11 12 12 11 9 7 6 6 5 5 5 3 2 1 0 1 2 2 2 1 1 0 0 0 0 0 1 2 3 3 3 3 3 2 2 1 1 1
9 10 11 11 9 8 8 8 8 7 6 6 5 5 5 4 3 2 2 1 1 1 1 1 1 0 0 0 0 0 0 1 2 3 2 2 2 2 1 1 1 1 1
11 12 11 10 7 5 5 5 4 4 3 3 3 3 3 3 2 2 2 2 1 1 1 1 1 0 0 0 0 0 0 0 1 1 1 1 0 1 1 1 0 1 1
12 11 9 7 5 4 4 3 2 1 1 1 1 1 1 1 1 1 1 1 1 1 1 1 1 1 1 0 1 0 0 0 0 0 0 0 0 0 0 0 0 0 0
10 9 7 6 5 4 4 3 2 1 0 0 0 0 0 0 0 0 0 0 0 0 0 1 1 1 1 0 0 1 0 0 0 0 0 0 0 0 0 0 0 0 0
9 8 6 6 5 4 4 4 3 2 1 1 0 0 0 0 0 0 0 0 0 0 0 0 0 0 0 0 0 0 0 0 0 0 0 0 0 0 0 0 0 0 0
10 9 7 6 5 5 5 4 3 2 2 1 1 1 0 0 0 0 0 0 0 0 0 0 0 0 0 0 0 0 0 0 0 0 0 0 0 0 0 0 0 0 0
9 8 6 5 5 5 5 4 3 2 2 2 1 1 0 0 0 0 0 0 0 0 0 0 0 0 0 0 0 0 0 0 0 0 0 0 0 0 0 0 0 0 0
5 4 4 4 4 5 5 4 3 3 2 2 1 1 0 0 0 0 0 0 0 0 0 0 0 0 0 0 0 0 0 0 0 0 0 0 0 0 0 0 0 0 0
2 2 3 3 3 4 4 4 4 3 2 2 1 1 0 0 1 1 0 0 0 0 0 0 0 0 0 0 0 0 0 0 0 0 0 0 0 0 0 0 0 0 0
1 2 2 2 2 2 3 3 3 2 1 1 1 1 0 1 1 1 0 0 0 0 0 0 0 0 0 0 0 0 0 0 0 0 0 0 0 0 0 0 0 0 0
1 1 1 1 1 1 1 1 1 1 1 0 0 0 0 0 0 0 0 0 0 0 0 0 0 0 0 0 0 0 0 0 0 0 0 0 0 0 0 0 0 0 0
1 1 1 1 0 0 0 0 0 0 0 0 0 0 0 0 0 0 0 0 0 0 0 0 0 0 0 0 0 0 0 0 0 0 0 0 0 0 0 0 0 0 0
0 0 0 0 0 0 0 0 0 0 0 0 0 0 0 0 0 0 0 0 0 0 0 0 0 0 0 0 0 0 0 0 0 0 0 0 0 0 0 0 0 0 0

GEFSGL_con_maxscp_168.txt.gz
SCP
5 6 7 7 5 4 3 4 4 3 3 4 4 4 3 4 6 6 5 5 4 3 3 3 3 2 2 2 2 2 2 1 1 1 2 2 2 2 2 3 3 3 3
6 7 8 7 5 4 4 4 4 3 3 4 5 4 4 3 4 4 4 4 4 3 3 3 3 2 2 2 2 2 2 2 2 2 2 2 2 2 2 2 2 2 2
8 9 9 7 6 5 4 4 3 3 4 5 6 6 4 3 3 3 4 4 4 4 3 3 3 2 2 2 2 2 2 3 2 2 2 2 2 2 2 2 2 2 2
12 11 9 7 6 5 5 4 4 4 4 5 6 7 5 4 4 4 5 5 6 5 4 4 3 2 2 2 2 2 2 3 3 2 2 2 2 2 2 2 1 1 1
16 14 10 8 6 6 6 6 5 5 5 5 6 7 6 5 4 5 6 7 7 6 5 4 3 2 1 1 1 2 2 2 2 2 2 2 2 2 2 2 1 1 1
18 16 12 10 8 7 7 7 7 7 6 6 7 7 6 5 4 5 8 9 9 8 7 6 4 2 1 1 1 1 1 1 2 3 3 2 2 2 2 1 1 1 1
19 17 15 12 10 8 8 8 8 7 7 7 7 8 8 6 4 5 8 11 10 9 8 7 5 3 1 1 1 1 1 1 2 3 3 2 2 2 2 1 1 1 1
20 19 16 13 11 10 9 9 8 7 8 8 8 9 9 7 5 4 6 10 11 10 8 7 5 3 2 1 1 1 1 1 1 2 2 1 1 2 2 2 1 1 1
22 20 16 13 12 11 10 10 9 8 8 8 8 9 10 8 4 2 4 8 10 10 8 6 4 3 1 1 1 1 1 1 1 1 1 1 1 1 1 1 1 1 1
20 18 15 13 12 11 11 11 10 9 8 7 8 10 11 8 4 2 3 6 8 8 7 5 3 1 1 0 1 1 1 1 1 1 1 1 1 1 1 1 1 1 2
16 15 14 13 12 11 12 12 11 10 9 10 10 12 11 8 4 2 2 3 5 6 5 4 2 1 0 0 0 1 1 1 2 2 2 2 2 2 1 1 1 1 1
15 14 13 12 11 11 12 12 11 10 10 11 11 11 9 6 4 2 1 1 2 3 3 3 1 0 0 0 0 0 0 1 1 2 2 2 2 2 1 1 0 0 1
15 14 12 10 9 10 10 11 10 9 9 9 8 8 7 6 4 3 1 1 0 1 1 1 1 0 0 0 0 0 0 1 1 1 1 1 1 1 1 0 0 0 0
13 13 10 8 8 9 9 9 9 8 7 6 6 6 6 5 4 3 2 1 0 0 0 0 0 0 0 0 0 0 0 0 1 1 1 1 1 1 0 0 0 0 0
11 11 9 8 8 8 8 7 7 6 5 5 5 5 4 3 2 2 1 1 1 0 0 0 0 0 0 0 0 0 0 0 0 0 0 0 0 0 0 0 0 0 0
11 11 9 9 10 10 7 5 4 3 3 2 2 2 2 2 1 1 0 0 0 0 0 0 0 0 0 0 0 0 0 0 0 0 0 0 0 0 0 0 0 0 0
12 12 11 12 12 11 8 5 4 2 1 1 1 1 1 0 0 0 0 0 0 0 0 1 1 1 0 0 0 0 0 0 0 0 0 0 0 0 0 0 0 0 0
13 13 13 13 12 11 10 7 5 3 2 2 1 0 0 0 0 0 0 0 0 0 0 1 1 1 1 1 0 0 0 0 0 0 0 0 0 0 0 0 0 0 0
14 13 13 12 11 11 10 7 5 4 4 3 2 1 1 0 0 0 0 0 0 0 0 0 1 1 1 1 1 0 0 0 0 0 0 0 0 0 0 0 0 0 0
12 11 10 11 10 10 8 6 4 4 4 4 4 3 1 0 0 0 0 0 0 0 0 0 1 1 1 1 1 0 0 0 0 0 0 0 0 0 0 0 0 0 0
9 8 8 9 9 9 8 6 4 4 4 4 4 3 1 1 1 1 1 0 0 0 0 0 1 0 1 1 1 0 0 0 0 0 0 0 0 0 0 0 0 0 0
7 7 8 8 8 8 7 5 4 3 3 3 3 2 1 1 1 1 0 0 0 0 0 0 1 1 1 1 1 0 0 0 0 0 0 0 0 0 0 0 0 0 0
6 7 7 7 6 5 4 4 3 2 2 2 2 2 1 1 1 1 0 0 0 0 0 0 1 1 1 1 0 0 0 0 0 0 0 0 0 0 0 0 0 0 0
4 4 5 5 5 3 2 2 2 1 1 1 2 2 1 1 1 0 0 0 0 0 0 0 0 1 1 0 0 0 0 0 0 0 0 0 0 0 0 0 0 0 0
3 3 3 4 3 3 2 1 1 1 1 1 1 1 0 0 0 0 0 0 0 0 0 0 0 0 0 0 0 0 0 0 0 0 0 0 0 0 0 0 0 0 0
3 3 3 4 3 2 1 1 0 0 0 0 0 0 0 0 0 0 0 0 0 0 0 0 0 0 0 0 0 0 0 0 0 0 0 0 0 0 0 0 0 0 0

GEFSGL_con_maxscp_174.txt.gz
SCP
5 4 3 2 2 2 2 1 1 1 1 1 1 2 2 2 2 2 2 2 2 2 1 1 1 1 1 1 1 1 1 0 0 0 0 0 0 0 0 0 0 0 0
5 5 4 3 2 2 2 1 1 2 2 2 2 2 2 2 2 2 2 3 3 3 2 2 1 1 1 1 1 1 1 1 0 0 0 0 0 0 0 0 0 0 0
5 5 5 4 4 3 2 2 2 2 2 2 2 1 2 2 2 2 3 3 4 4 4 3 2 1 1 1 1 1 1 1 1 1 0 0 0 0 0 0 0 0 0
6 6 6 6 5 4 3 2 3 3 3 2 2 1 2 2 2 3 4 4 4 5 5 4 3 2 1 1 1 1 1 1 1 1 1 1 1 0 0 0 0 0 0
8 8 8 7 6 5 4 3 3 3 3 3 3 3 3 3 3 3 4 5 5 6 6 5 3 2 1 1 1 1 1 1 1 1 0 1 1 0 0 0 0 0 0
10 10 9 8 7 7 6 5 5 5 5 5 5 5 5 4 3 3 4 5 6 6 6 5 3 1 1 1 0 0 0 0 0 0 0 0 0 0 0 1 1 0 0
11 11 10 9 9 8 7 6 6 7 7 8 8 7 6 5 3 2 2 3 4 5 5 4 2 1 1 1 1 0 0 0 0 0 0 0 0 0 1 1 1 1 1
13 12 11 10 10 9 7 6 6 6 7 8 8 7 6 4 2 1 1 1 2 3 3 2 1 1 1 1 1 1 1 0 0 0 0 0 0 0 1 1 1 1 0
15 13 11 10 9 8 7 6 5 5 5 6 6 4 3 2 1 1 1 1 2 2 2 1 1 1 1 1 1 1 1 1 0 0 0 0 0 0 0 0 1 0 0
14 13 12 10 9 8 7 6 4 3 4 4 4 3 2 2 1 1 1 1 2 2 2 1 1 1 1 1 1 1 1 0 0 0 0 0 0 0 0 0 0 0 0
14 14 14 13 11 8 6 4 3 3 3 3 3 3 2 2 1 1 0 1 1 2 2 2 1 1 0 0 0 0 0 0 0 0 0 0 0 0 0 0 0 0 0
17 17 17 15 11 7 4 4 4 4 4 4 4 3 3 1 1 0 0 0 1 1 1 1 1 0 0 0 0 0 0 0 0 0 0 0 0 0 0 0 0 0 0
18 18 16 13 9 5 4 4 4 4 5 5 5 4 3 2 1 0 0 0 0 0 0 0 0 0 0 0 0 0 0 0 0 0 0 0 0 0 0 0 0 0 0
15 14 12 9 6 5 5 4 4 4 4 4 5 4 3 2 1 1 0 0 0 0 0 0 0 0 0 0 0 0 0 0 0 0 0 0 0 0 0 0 0 0 0
11 10 7 6 5 5 5 4 3 3 3 3 3 3 3 2 2 1 0 0 0 0 0 0 0 0 0 0 0 0 0 0 0 0 0 0 0 0 0 0 0 0 0
10 8 6 5 4 5 5 4 3 2 2 2 2 2 2 1 1 0 0 0 0 0 0 0 0 0 0 0 0 0 0 0 0 0 0 0 0 0 0 0 0 0 0
10 9 7 6 5 5 5 5 3 2 1 1 1 1 0 0 0 0 0 0 0 0 0 0 0 0 0 0 0 0 0 0 0 0 0 0 0 0 0 0 0 0 0
10 10 9 8 6 6 6 5 4 2 1 0 0 0 0 0 0 0 0 0 0 0 0 0 0 0 0 0 0 0 0 0 0 0 0 0 0 0 0 0 0 0 0
10 10 9 8 8 7 7 7 5 3 2 1 0 0 0 0 0 0 0 0 0 0 0 0 0 0 0 0 0 0 0 0 0 0 0 0 0 0 0 0 0 0 0
8 8 8 9 9 9 9 9 8 6 3 1 0 0 0 0 0 0 0 0 0 0 0 0 0 0 0 0 0 0 0 0 0 0 0 0 0 0 0 0 0 0 0
6 6 7 8 9 10 10 10 10 8 5 3 1 0 0 0 0 0 0 0 0 0 0 0 0 0 0 0 0 0 0 0 0 0 0 0 0 0 0 0 0 0 0
4 4 5 6 7 8 9 9 8 7 6 4 2 0 0 0 0 0 0 0 0 0 0 0 0 0 0 0 0 0 0 0 0 0 0 0 0 0 0 0 0 0 0
2 2 3 3 4 5 6 5 5 5 5 4 2 1 0 0 0 0 0 0 0 0 0 0 0 0 0 0 0 0 0 0 0 0 0 0 0 0 0 0 0 0 0
1 1 1 1 2 3 3 3 2 3 3 2 1 0 0 0 0 0 0 0 0 0 0 0 0 0 0 0 0 0 0 0 0 0 0 0 0 0 0 0 0 0 0
0 0 0 1 1 2 2 1 1 1 1 1 0 0 0 0 0 0 0 0 0 0 0 0 0 0 0 0 0 0 0 0 0 0 0 0 0 0 0 0 0 0 0
0 0 0 0 1 1 1 1 0 0 0 0 0 0 0 0 0 0 0 0 0 0 0 0 0 0 0 0 0 0 0 0 0 0 0 0 0 0 0 0 0 0 0

GEFSGL_con_maxscp_180.txt.gz
SCP
2 2 2 2 2 1 1 1 1 1 1 1 1 1 1 1 1 1 1 1 2 2 2 3 3 2 1 1 1 1 0 0 0 0 0 0 0 0 0 0 0 0 0
2 2 3 3 2 2 1 1 1 1 1 1 1 1 1 1 1 1 1 2 2 2 3 3 3 3 2 1 1 1 1 1 0 0 0 0 0 0 0 0 0 0 1
3 3 3 2 2 2 2 2 2 2 2 2 2 2 2 1 2 2 2 2 2 3 3 4 4 3 2 2 1 1 1 1 1 1 0 0 0 1 1 1 1 1 1
4 4 3 2 2 2 2 2 2 3 3 3 2 2 2 2 2 2 2 3 3 4 5 5 5 3 3 2 2 1 1 1 1 1 0 0 1 1 1 1 1 1 1
5 5 4 3 3 2 2 2 2 3 3 3 2 2 2 2 2 2 3 4 4 5 6 6 5 4 3 2 1 1 1 1 1 1 1 0 0 1 1 1 1 0 0
6 5 4 4 3 3 2 2 2 2 3 3 3 3 3 2 2 2 2 3 5 5 5 5 4 4 3 2 1 1 1 1 1 1 0 0 0 0 0 0 0 0 0
7 6 5 5 4 3 3 2 2 2 3 3 3 3 3 2 1 1 1 2 3 3 3 3 2 2 2 1 1 1 1 1 1 0 0 0 0 0 0 0 0 0 0
9 8 7 6 5 4 3 2 2 2 3 3 3 3 2 2 1 1 1 1 1 1 1 1 1 1 1 1 1 1 1 1 1 0 0 0 0 0 0 0 0 0 0
10 10 9 8 6 4 3 2 2 3 3 3 3 2 2 2 1 1 1 1 1 1 1 1 1 1 1 1 1 1 1 1 1 0 0 0 0 0 0 0 0 0 0
10 10 10 8 6 4 3 3 2 2 3 3 3 3 2 2 1 1 1 1 1 1 1 1 1 0 0 0 0 1 1 1 1 0 0 0 0 0 0 0 0 0 0
9 9 9 7 6 4 3 3 2 2 2 3 3 3 2 1 1 1 1 1 1 1 1 0 0 0 0 0 0 0 0 0 0 0 0 0 0 0 0 0 0 0 0
7 8 7 7 6 4 3 3 3 3 3 3 4 3 2 1 1 1 0 0 0 0 0 0 0 0 0 0 0 0 0 0 0 0 0 0 0 0 0 0 0 0 0
6 7 7 6 6 4 3 3 3 3 3 4 4 3 2 1 1 1 0 0 0 0 0 0 0 0 0 0 0 0 0 0 0 0 0 0 0 0 0 0 0 0 0
7 7 7 7 6 4 4 3 3 3 3 4 4 3 2 2 1 1 1 1 0 0 0 0 0 0 0 0 0 0 0 0 0 0 0 0 0 0 0 0 0 0 0
8 8 7 7 6 5 4 3 2 2 2 2 3 2 2 2 1 1 1 1 0 0 0 0 0 0 0 0 0 0 0 0 0 0 0 0 0 0 0 0 0 0 0
7 7 7 6 6 5 4 3 2 1 1 1 1 2 2 1 1 0 0 0 0 0 0 0 0 0 0 0 0 0 0 0 0 0 0 0 0 0 0 0 0 0 0
6 5 5 5 5 5 5 4 3 2 1 1 1 1 1 1 0 0 0 0 0 0 0 0 0 0 0 0 0 0 0 0 0 0 0 0 0 0 0 0 0 0 0
4 3 3 4 4 5 5 5 4 4 2 1 1 0 0 0 0 0 0 0 0 0 0 0 0 0 0 0 0 0 0 0 0 0 0 0 0 0 0 0 0 0 0
3 3 3 3 4 5 5 5 5 5 4 3 1 0 0 0 0 0 0 0 0 0 0 0 0 0 0 0 0 0 0 0 0 0 0 0 0 0 0 0 0 0 0
4 3 2 3 5 6 6 6 6 5 5 4 2 1 1 0 0 0 0 0 0 0 0 0 0 0 0 0 0 0 0 0 0 0 0 0 0 0 0 0 0 0 0
4 3 2 4 5 6 7 6 6 5 5 4 3 2 1 1 1 1 1 0 0 0 0 0 0 0 0 0 0 0 0 0 0 0 0 0 0 0 0 0 0 0 0
4 3 3 4 5 6 6 6 5 5 4 4 4 3 2 1 1 1 1 0 0 0 0 0 0 0 1 1 0 0 0 0 0 0 0 0 0 0 0 0 0 0 0
3 2 2 4 5 5 5 5 4 3 3 3 3 2 1 1 1 1 0 0 0 0 0 0 0 0 1 1 1 0 0 0 0 0 0 0 0 0 0 0 0 0 0
2 1 1 2 3 4 4 3 2 2 2 2 2 2 1 0 0 0 0 0 0 0 0 0 0 0 0 0 0 0 0 0 0 0 0 0 0 0 0 0 0 0 0
1 1 0 1 1 2 2 2 1 1 1 1 1 1 1 0 0 0 0 0 0 0 0 0 0 0 0 0 0 0 0 0 0 0 0 0 0 0 0 0 0 0 0
0 0 0 0 0 1 1 1 1 0 1 1 1 1 1 0 0 0 0 0 0 0 0 0 0 0 0 0 0 0 0 0 0 0 0 0 0 0 0 0 0 0 0

GEFSGL_con_maxscp_186.txt.gz
SCP
5 7 7 6 4 4 5 5 5 4 5 5 4 3 3 3 3 3 3 2 2 2 2 2 3 4 4 4 5 5 5 4 3 3 3 5 5 4 3 2 1 2 2
5 5 6 5 4 4 5 5 5 5 5 5 5 4 3 4 4 4 3 2 2 2 2 3 4 4 5 5 6 6 5 4 4 4 4 5 5 4 3 2 2 2 2
4 4 4 4 5 6 7 7 7 6 6 6 5 4 4 4 4 4 3 3 3 3 3 4 4 5 6 6 6 6 5 5 5 5 5 6 5 3 2 2 2 2 2
5 5 5 5 7 8 10 10 9 8 6 5 5 4 4 4 4 4 4 4 4 4 5 5 5 5 5 5 5 5 5 5 5 4 4 5 4 3 2 2 2 3 2
7 7 7 8 10 11 12 12 11 9 7 5 4 4 3 3 3 3 4 4 4 5 5 5 5 4 3 3 3 4 4 4 4 3 3 3 3 2 2 2 2 2 2
12 12 13 13 13 14 15 15 14 11 8 6 5 4 4 3 2 2 3 3 4 4 4 4 3 2 2 1 1 1 2 2 2 2 2 2 2 2 2 2 2 2 2
17 17 17 16 15 16 19 19 18 15 11 8 8 7 6 4 2 1 2 2 3 3 3 3 3 2 2 2 2 1 1 1 1 2 2 2 2 2 2 2 2 2 1
15 16 17 17 17 18 20 22 21 18 14 12 12 12 8 5 3 1 1 2 2 3 3 3 3 3 3 3 3 3 2 2 1 2 2 2 2 1 1 2 2 2 1
11 13 17 19 19 18 20 22 21 17 14 14 14 13 10 6 3 1 1 2 3 4 4 4 3 3 2 2 3 3 3 2 1 1 1 1 1 1 1 1 2 1 1
13 16 20 23 22 19 18 19 18 14 13 13 12 10 9 6 3 1 1 3 5 6 6 4 2 1 1 1 2 3 3 2 1 1 1 1 0 0 1 1 1 1 1
16 19 23 26 23 19 16 15 14 11 10 9 8 7 7 6 3 1 1 3 6 7 7 5 2 1 0 0 1 2 2 2 1 1 1 1 1 1 1 1 1 1 1
18 19 23 24 22 17 13 12 11 9 8 7 6 6 5 5 3 1 1 2 4 6 7 5 3 1 0 0 0 1 1 1 1 1 1 1 1 1 1 1 1 1 1
18 19 20 20 18 14 11 10 10 9 8 7 6 6 5 4 4 2 1 1 2 4 6 5 2 1 0 0 0 0 0 0 1 1 1 1 1 1 0 0 1 1 1
16 17 19 17 14 12 11 10 10 10 9 9 9 8 7 6 4 3 2 1 1 3 5 4 2 1 0 0 1 0 0 1 1 1 1 1 1 1 1 0 0 0 1
13 16 18 16 13 10 9 8 8 8 9 10 11 12 10 8 4 3 2 2 2 2 3 3 2 1 1 1 1 1 1 1 1 1 1 1 1 1 0 0 0 0 0
12 14 15 13 11 9 7 6 5 5 4 6 9 11 10 7 3 1 1 1 1 1 2 2 2 1 1 2 2 1 1 1 1 1 1 0 0 0 0 0 0 0 0
11 11 11 10 8 8 7 5 4 2 2 2 3 5 6 3 1 0 0 0 0 1 2 2 2 2 2 2 2 1 1 1 1 1 1 0 0 0 0 0 0 0 0
9 9 8 8 8 8 7 5 4 3 3 3 2 1 1 1 0 0 0 0 1 1 2 3 3 2 2 2 2 2 2 2 1 1 0 0 0 0 0 0 0 0 0
8 8 8 8 8 8 7 5 4 4 4 4 4 2 1 1 0 0 1 2 2 2 3 3 3 3 3 2 2 1 1 1 1 1 0 0 0 0 0 0 0 0 0
9 8 8 8 10 9 7 5 5 5 5 5 5 4 3 2 2 2 2 3 4 4 4 4 4 3 2 2 1 1 1 1 1 1 0 0 0 0 0 0 0 0 0
10 10 9 9 10 9 7 6 6 6 7 6 6 5 4 3 4 4 4 5 7 7 7 6 4 3 2 1 1 1 0 0 0 1 1 0 0 0 0 0 0 0 0
10 10 9 8 8 7 7 7 7 7 7 7 6 5 3 3 5 6 6 6 7 7 6 6 4 2 1 1 1 1 1 1 1 1 1 0 0 0 0 0 0 0 0
7 7 6 6 5 5 6 6 7 6 6 6 6 5 4 3 5 5 5 5 4 4 3 3 3 2 1 1 0 0 1 1 1 0 0 0 0 0 0 0 0 0 0
4 4 4 4 4 4 4 4 5 4 4 5 6 6 4 4 4 4 3 2 2 1 1 1 1 1 1 0 0 0 0 0 0 0 0 0 0 0 0 0 0 0 0
4 4 5 4 4 3 3 3 3 3 3 4 5 5 4 3 3 2 2 1 1 1 1 1 1 0 0 0 0 0 0 0 0 0 0 0 0 0 0 0 0 0 0
4 4 5 4 4 3 3 2 2 2 3 4 4 4 3 2 1 1 1 1 1 1 1 1 1 0 0 0 0 0 0 0 0 0 0 0 0 0 0 0 0 0 0

GEFSGL_con_maxscp_192.txt.gz
SCP
7 7 7 7 7 7 7 8 8 9 10 9 10 10 8 6 4 3 3 3 3 3 3 3 3 2 2 2 2 2 2 2 3 2 2 1 1 1 1 2 2 2 2
7 7 8 8 8 7 8 8 8 9 9 10 10 10 8 6 5 4 3 3 3 3 3 3 2 3 3 3 3 3 3 3 3 2 2 2 1 1 1 1 2 2 2
8 8 8 9 10 9 9 9 9 9 9 9 10 10 9 7 5 5 4 4 4 4 3 3 3 3 3 3 3 3 3 3 3 2 2 2 1 1 1 1 1 1 1
10 10 9 9 10 10 9 9 10 11 10 10 10 10 10 9 6 5 5 4 4 4 4 3 3 3 3 3 3 3 3 3 3 2 2 2 2 2 2 1 1 1 1
11 11 10 9 9 10 9 9 11 12 12 12 11 11 12 10 7 5 5 5 4 4 4 4 4 3 3 3 3 3 3 3 3 3 2 2 2 2 2 2 1 1 2
10 11 10 9 9 9 8 8 10 12 13 13 13 13 14 11 7 6 6 6 6 5 5 5 4 4 3 3 2 2 2 3 3 3 3 3 2 2 2 2 2 2 2
11 10 10 10 10 9 8 9 12 14 15 16 16 16 15 11 6 5 6 6 6 6 6 5 5 4 4 4 3 3 2 2 2 3 3 3 3 3 3 2 2 2 2
13 13 13 12 11 10 10 12 16 19 21 21 19 16 12 9 5 4 5 6 6 7 7 7 6 5 4 4 4 4 4 3 2 2 2 2 2 2 2 2 2 2 2
15 15 15 13 12 11 13 17 22 25 27 25 19 12 10 8 6 4 4 6 8 9 9 9 8 6 5 4 4 5 5 4 2 1 1 1 1 1 1 1 2 2 2
15 16 17 17 16 15 17 23 28 30 28 22 14 10 9 9 7 5 4 6 9 9 10 10 8 6 3 2 2 3 4 3 2 1 1 0 0 0 0 1 1 2 2
17 19 21 21 19 17 20 28 31 28 21 14 10 10 10 10 8 5 3 5 7 8 8 7 6 4 2 1 1 2 2 2 2 2 1 1 1 1 1 1 1 1 1
22 23 24 22 18 18 22 29 28 20 13 10 9 10 12 11 8 4 2 2 3 4 5 4 3 2 1 0 0 1 1 1 1 1 1 1 1 1 1 1 1 1 1
26 26 25 21 18 19 22 24 21 15 10 9 10 11 12 10 7 3 1 1 1 2 3 3 1 1 0 0 0 0 0 1 1 1 1 2 2 2 2 1 1 1 1
23 24 24 22 20 20 20 19 17 14 11 10 11 12 10 8 6 4 3 1 1 2 3 2 1 1 0 0 1 1 1 1 1 1 2 2 2 2 2 1 1 1 0
17 18 20 19 19 19 17 15 14 13 11 11 11 10 8 6 6 5 4 3 2 2 3 2 1 1 1 1 1 1 1 1 1 1 2 2 3 2 2 2 1 1 1
13 13 15 15 15 15 13 12 11 10 8 7 6 5 5 4 4 4 4 3 2 2 3 2 2 2 2 2 2 2 2 2 2 2 2 3 3 2 2 2 2 1 1
10 10 12 13 13 12 11 10 10 9 6 4 3 2 2 2 1 1 1 1 1 1 2 3 2 2 3 3 3 2 2 2 3 3 3 3 2 2 2 2 1 1 1
9 10 11 12 11 10 10 11 11 11 9 6 3 2 1 0 0 0 0 0 1 1 3 3 4 4 4 4 3 3 3 3 3 3 3 2 1 1 1 1 1 1 1
9 10 11 10 9 9 9 11 12 12 11 9 6 3 1 0 0 0 0 0 1 2 3 4 6 6 5 4 4 4 4 4 4 3 2 1 1 1 1 1 1 0 0
10 10 9 9 8 8 8 9 11 12 11 9 7 4 2 1 1 1 1 1 1 2 3 5 6 6 5 4 4 4 5 5 4 3 2 1 1 1 1 1 1 1 0
10 9 8 8 8 8 8 8 10 11 9 8 6 4 2 2 2 2 2 2 2 2 4 5 5 5 4 4 4 4 5 5 4 3 2 1 1 1 1 1 1 1 1
7 7 8 8 8 8 8 9 10 9 8 6 5 4 3 3 3 4 4 3 3 3 4 5 5 4 4 4 4 4 5 5 4 2 1 1 1 0 0 1 1 1 1
5 5 6 7 8 8 8 9 9 7 6 6 5 5 4 4 4 4 4 4 4 3 3 4 5 4 4 4 4 5 5 5 3 2 1 1 1 0 0 0 0 0 0
4 4 5 6 7 8 9 9 8 6 5 5 5 5 4 4 4 4 5 5 5 3 3 3 4 4 4 4 4 5 5 3 2 1 1 1 0 0 0 0 0 0 0
4 4 5 6 7 8 9 8 6 5 5 5 5 5 4 4 4 4 6 7 6 4 3 3 3 3 3 3 3 4 3 2 1 1 1 1 0 0 0 0 0 0 0
4 5 6 7 7 8 7 6 5 4 4 5 5 4 4 4 3 4 6 8 7 5 3 2 2 2 3 3 3 3 2 1 0 0 0 0 0 0 0 0 0 0 0

GEFSGL_con_maxscp_198.txt.gz
SCP
4 4 4 4 4 4 4 5 5 5 4 3 3 3 4 4 6 8 9 9 7 5 3 2 1 1 1 1 1 1 1 1 1 1 0 0 0 0 0 0 0 0 1
4 4 4 4 4 4 5 6 6 5 4 4 3 4 4 5 6 8 9 8 7 5 3 2 1 1 1 1 1 1 1 1 1 1 0 0 0 0 0 0 0 1 1
5 5 4 4 4 4 5 7 7 5 4 4 4 4 4 5 7 8 8 7 7 5 3 2 2 1 1 1 1 1 1 1 1 1 0 0 0 0 1 1 1 1 1
7 6 5 5 5 5 6 7 7 5 4 4 4 4 4 4 5 6 6 7 7 6 4 3 2 2 2 1 1 1 1 1 1 1 1 1 0 1 1 1 1 1 0
9 8 6 5 5 5 5 6 6 6 6 5 5 5 4 4 5 5 6 7 7 6 5 4 3 3 2 1 1 2 2 4 4 3 1 1 1 1 1 2 2 1 1
12 11 9 7 6 5 5 6 6 7 7 7 6 6 5 5 5 5 6 6 6 6 5 5 4 3 2 2 1 1 2 4 7 5 2 2 2 1 1 2 2 2 1
14 14 13 10 8 6 6 7 8 9 9 9 8 7 7 7 6 5 5 6 6 6 5 5 3 3 2 2 2 1 2 3 4 4 3 3 2 2 1 1 2 2 2
12 13 14 13 10 8 8 9 11 13 13 11 9 8 9 8 6 4 5 6 6 5 4 3 3 2 2 2 2 2 2 2 2 2 2 2 2 1 1 1 1 1 1
10 11 13 14 12 11 11 11 12 15 16 13 10 10 11 9 5 3 4 5 5 4 3 2 2 1 1 1 1 2 2 2 1 1 1 1 1 0 0 0 1 1 1
8 10 11 13 13 13 12 12 12 14 14 11 10 12 13 10 5 3 3 4 4 4 3 2 1 1 1 1 1 1 1 1 1 0 0 0 0 0 0 0 0 0 0
8 9 10 12 13 14 14 13 13 13 12 10 11 14 13 9 4 2 2 3 4 3 3 2 1 1 0 0 1 1 1 1 1 0 0 0 0 0 0 0 0 0 0
9 9 10 12 14 15 16 15 15 14 12 12 13 14 11 7 4 2 1 2 2 2 2 2 1 1 0 0 0 0 0 0 0 0 0 0 0 0 0 0 0 0 0
11 10 11 12 15 17 17 17 16 15 13 13 14 12 9 7 5 3 1 1 1 1 1 1 1 1 0 0 0 0 0 0 0 1 1 1 1 0 0 0 0 0 0
13 12 12 14 16 17 17 17 17 15 13 13 13 11 9 8 8 6 3 2 1 1 1 1 1 0 0 0 0 0 1 1 1 1 1 1 1 1 0 0 0 0 0
13 12 12 12 14 16 16 16 15 14 12 12 13 11 9 9 9 7 4 3 3 2 2 2 1 1 1 1 1 1 1 1 1 1 1 1 1 1 0 0 0 0 0
10 9 9 9 11 13 14 12 11 9 9 9 10 8 7 7 6 4 3 3 2 2 2 2 2 2 1 1 1 1 1 1 1 1 1 1 1 1 1 1 0 0 0
8 8 8 8 9 10 10 9 8 6 5 5 4 4 4 3 2 1 1 1 1 1 1 2 3 2 2 2 2 1 1 1 1 1 1 1 1 1 1 1 1 0 0
7 7 7 7 7 7 7 8 8 7 6 4 3 2 1 1 1 0 0 0 0 0 1 2 3 3 3 2 2 1 1 1 1 1 1 1 1 1 1 1 1 1 0
6 6 5 5 4 4 4 6 9 10 10 8 6 3 2 1 0 0 0 0 1 1 1 2 2 3 3 2 2 2 1 1 1 1 1 1 1 1 1 1 1 1 0
3 3 3 3 3 3 3 5 7 9 10 10 8 6 3 2 1 1 0 1 1 1 1 1 2 2 2 2 2 2 2 2 1 1 1 1 1 1 2 2 1 1 1
2 2 2 2 2 2 3 3 5 7 8 9 8 7 5 3 3 2 1 1 1 1 1 1 1 2 2 2 2 2 2 2 2 2 2 1 1 2 2 2 2 1 1
2 2 2 2 2 2 2 2 2 4 6 7 7 7 6 5 4 3 2 2 2 1 1 1 1 1 2 2 2 2 2 2 2 2 2 1 1 2 2 2 2 1 0
2 2 2 2 2 1 2 2 2 2 4 5 6 6 6 5 4 4 3 3 2 2 2 1 1 1 1 1 1 2 2 2 2 2 1 1 1 1 2 2 2 1 0
2 2 2 2 2 1 1 2 2 2 3 4 5 5 5 5 4 4 3 3 3 3 2 2 1 1 1 1 1 1 1 2 1 1 1 1 1 1 2 2 1 1 0
1 2 2 2 2 1 1 2 2 2 2 2 3 4 4 4 4 4 4 4 3 3 3 2 1 1 1 0 0 1 1 1 1 1 1 1 1 1 1 1 1 0 0
1 1 2 2 2 2 1 1 2 2 2 2 2 3 4 3 3 3 4 4 3 3 2 2 1 1 0 0 0 0 0 0 0 0 1 1 1 1 1 1 1 0 0

GEFSGL_con_maxscp_204.txt.gz
SCP
6 4 3 3 2 1 1 1 1 1 2 3 4 4 3 3 2 2 3 4 4 5 4 4 3 3 2 1 1 1 1 1 1 1 1 0 0 0 0 0 0 0 0
6 5 4 4 3 2 2 1 1 1 2 3 4 4 3 2 2 2 3 3 4 5 5 4 4 3 2 2 2 1 1 1 1 1 1 1 0 0 0 0 0 0 0
8 7 6 5 4 3 3 2 2 2 3 3 3 3 3 2 2 2 2 3 3 4 5 4 4 4 3 3 3 2 2 2 2 2 2 1 1 1 0 0 0 0 0
10 8 6 4 3 3 3 3 3 3 3 3 3 3 3 2 2 2 3 3 3 4 4 4 4 4 4 4 4 3 3 3 3 3 3 3 2 1 1 1 1 1 0
8 6 4 3 3 2 2 3 3 4 4 4 3 3 3 3 2 3 3 4 4 4 4 4 4 5 5 5 4 4 3 3 4 4 4 4 3 1 1 1 1 1 1
6 5 4 3 3 3 3 3 4 4 4 4 4 3 3 4 4 3 3 4 4 5 5 4 5 5 5 4 4 3 3 3 4 5 5 5 3 2 2 2 2 1 1
4 4 4 3 3 3 3 3 3 4 4 4 5 5 4 5 5 3 2 3 4 5 6 5 5 5 4 4 3 2 2 2 2 4 4 4 3 2 2 2 2 2 1
4 4 4 4 4 4 4 4 4 4 4 4 5 5 5 5 4 2 1 2 4 5 6 6 5 4 4 4 3 2 2 2 2 2 2 2 2 2 2 2 2 1 1
4 4 4 4 5 5 4 4 4 4 4 4 5 5 5 4 3 1 1 2 3 4 5 5 4 3 3 2 2 2 1 1 1 1 1 1 1 1 1 1 1 1 1
4 4 4 5 5 5 5 5 5 5 5 5 5 5 5 5 3 1 1 2 3 4 4 3 2 2 1 1 1 1 1 1 1 1 1 0 0 0 0 0 0 0 1
4 4 4 4 4 5 5 5 5 6 7 8 7 5 5 4 3 1 1 2 4 4 3 2 1 1 0 0 0 1 1 1 1 1 1 1 1 1 1 0 0 0 0
5 5 4 3 4 5 5 6 6 8 9 10 8 6 5 4 3 1 1 2 3 4 4 3 1 0 0 0 0 0 0 1 1 1 1 1 1 1 1 1 0 0 0
7 6 5 4 4 5 6 7 8 9 10 10 9 7 5 4 3 2 1 1 2 3 3 3 1 0 0 0 0 0 0 0 0 1 1 1 1 1 1 1 1 0 0
8 9 8 7 7 7 6 7 8 8 9 9 8 7 7 6 5 4 3 2 2 2 2 2 1 0 0 0 0 0 0 0 0 1 1 1 1 1 1 1 1 0 0
7 10 12 13 11 8 5 5 5 6 6 6 6 7 7 7 6 5 4 3 2 2 1 1 1 1 1 1 1 1 0 0 0 1 1 1 1 0 1 1 1 0 0
4 7 12 14 13 8 4 2 3 3 4 4 4 4 5 5 5 4 3 2 2 1 1 1 1 2 2 2 2 1 1 1 1 1 1 1 1 0 1 1 1 1 1
5 6 9 12 11 6 3 2 2 2 3 3 2 2 2 3 2 2 1 1 0 0 1 1 2 2 2 2 2 2 2 2 1 1 1 1 1 1 1 1 1 1 1
6 7 9 10 9 5 3 3 4 4 5 4 2 1 1 1 1 1 0 0 0 0 1 1 2 2 2 2 3 3 3 2 2 2 2 2 2 1 1 1 1 1 1
4 5 7 7 6 5 4 5 6 7 7 6 4 2 1 1 1 1 1 1 1 1 1 2 2 2 2 2 3 3 3 3 3 3 3 2 2 2 1 1 1 1 1
3 4 4 5 5 5 6 7 8 8 7 5 4 2 1 1 1 1 1 2 2 1 1 2 2 1 1 2 2 3 3 3 3 3 3 3 2 2 1 1 1 1 1
4 4 5 5 6 6 7 7 7 6 4 3 2 1 1 1 1 1 1 1 1 1 1 1 1 1 1 1 2 3 3 3 4 4 3 3 2 2 2 2 2 2 2
5 5 5 5 5 5 5 4 4 3 2 1 1 0 0 1 1 0 0 0 1 1 1 1 1 1 1 1 2 3 3 3 3 3 3 2 2 2 2 2 2 2 2
3 3 3 3 2 2 2 2 1 1 1 0 0 0 0 0 0 0 0 0 1 1 1 1 1 1 1 1 2 2 2 2 2 2 2 2 2 2 2 2 2 2 2
1 1 1 1 1 1 1 1 1 1 0 0 0 0 0 0 0 0 0 1 1 1 1 1 1 2 2 1 1 2 2 2 2 1 2 2 2 2 2 2 1 1 1
0 0 0 1 1 1 1 1 1 1 1 0 0 0 0 0 0 0 0 0 1 1 1 2 2 2 2 2 1 1 1 1 1 1 1 1 1 1 1 1 1 1 1
0 0 0 1 1 1 1 1 1 1 1 0 0 0 0 0 0 0 0 0 0 0 1 2 2 2 2 2 1 1 1 0 0 0 1 1 1 1 1 1 1 1 1

GEFSGL_con_maxscp_210.txt.gz
SCP
9 10 12 15 15 13 10 8 7 6 4 3 3 3 3 3 3 3 3 3 3 3 3 3 3 3 3 4 4 4 3 3 2 2 2 3 3 3 3 2 2 3 3
11 13 15 15 14 13 10 8 7 7 7 5 3 3 3 3 3 3 3 3 3 3 4 4 4 5 4 4 4 4 4 3 3 3 3 3 4 4 3 3 2 2 2
11 13 15 14 11 11 10 8 7 8 10 7 5 4 4 3 4 4 4 4 4 5 5 5 6 6 6 6 5 5 5 4 5 4 4 4 5 5 4 3 2 2 2
9 11 11 11 10 10 9 8 7 8 10 8 5 5 5 4 4 5 5 6 6 7 7 7 7 8 8 8 7 7 7 7 6 6 6 6 6 5 4 3 2 2 2
7 8 9 9 9 9 9 8 7 8 8 6 5 5 5 4 4 4 5 7 8 8 8 7 7 7 7 7 8 8 9 8 8 8 8 8 7 6 4 3 2 3 3
6 6 6 7 7 8 8 9 9 8 7 6 5 5 4 4 3 3 4 6 7 8 8 7 7 6 6 6 6 6 7 8 8 9 9 9 8 6 4 3 2 3 3
5 5 6 6 6 6 8 8 8 8 7 6 5 4 3 3 2 2 3 5 6 6 6 6 6 6 6 6 5 5 5 6 7 8 9 9 7 5 4 3 3 3 2
5 6 7 7 6 6 7 7 7 6 5 5 5 4 4 3 3 2 2 4 5 4 5 5 6 6 6 7 8 8 7 6 5 6 7 7 5 4 4 3 3 3 2
7 8 9 9 7 6 6 7 7 6 5 5 5 5 4 4 3 2 2 3 5 5 5 5 5 5 6 7 9 10 9 6 3 3 3 3 2 2 3 3 3 3 2
7 8 9 9 8 6 6 7 7 6 6 5 5 5 5 5 3 2 2 5 6 6 5 5 4 4 4 5 7 8 7 5 3 3 2 2 1 1 2 2 3 3 3
9 8 8 8 7 7 7 7 8 7 6 6 6 6 6 5 3 2 2 6 7 7 6 5 4 3 2 3 4 5 4 4 4 4 4 3 2 2 2 2 3 3 3
10 9 8 8 7 8 8 8 8 7 7 7 7 7 7 7 4 2 2 5 7 7 6 5 4 2 1 1 2 2 3 3 4 5 5 4 3 3 3 3 3 4 4
10 9 8 8 8 9 10 9 8 7 7 7 7 8 9 8 6 3 2 2 4 6 6 5 4 2 1 1 1 1 2 3 5 5 5 4 3 3 3 3 3 4 4
9 8 7 8 10 11 10 9 8 8 7 7 7 8 10 9 7 5 3 2 2 3 4 5 4 2 2 2 2 2 3 4 6 7 6 4 4 4 4 4 3 3 4
9 8 7 7 9 10 10 9 8 7 7 7 8 9 9 8 6 5 4 3 2 2 3 4 5 4 4 5 5 4 4 5 7 8 8 6 5 4 4 4 4 3 3
10 8 7 6 7 9 10 10 8 6 5 6 7 8 6 4 3 2 2 2 2 2 3 4 6 6 6 6 6 6 5 5 7 9 9 7 6 5 5 5 4 4 3
9 8 7 7 7 7 8 9 8 6 4 3 4 4 3 1 1 1 1 1 1 1 3 5 6 6 6 6 6 6 5 5 6 7 8 7 6 6 5 5 5 4 3
6 6 6 6 5 5 6 7 8 7 5 3 2 1 1 0 0 0 0 1 1 2 3 5 6 6 6 6 5 5 5 5 5 6 6 6 6 6 6 5 5 4 4
5 4 4 5 4 4 5 6 7 7 6 4 2 1 0 1 1 1 1 2 3 4 5 5 6 6 5 5 5 5 5 5 5 6 5 5 5 5 6 6 6 5 4
3 3 3 4 5 5 5 5 5 5 5 4 3 2 2 2 3 3 3 4 5 6 5 5 5 4 4 4 4 4 4 4 5 6 6 6 6 6 7 7 7 6 6
2 3 4 5 6 6 5 5 4 4 5 5 4 4 3 4 6 6 5 5 5 5 4 4 4 3 3 3 3 3 4 4 5 7 7 6 6 6 7 7 7 7 6
2 2 4 5 5 5 5 4 4 5 6 7 7 6 5 6 7 6 5 5 4 3 3 3 3 3 2 2 2 3 3 4 5 6 6 6 6 6 6 6 6 6 6
2 3 3 4 4 4 4 5 5 6 7 8 7 6 6 6 5 4 3 3 3 2 2 2 2 2 2 2 2 2 3 3 4 4 4 4 5 5 6 6 6 6 5
4 4 5 5 5 5 5 5 6 6 7 6 5 4 4 3 3 2 2 2 2 2 2 2 2 1 1 1 1 2 2 2 2 3 3 4 4 5 5 5 5 5 5
6 6 7 7 6 6 5 5 5 4 4 3 2 1 1 1 1 2 2 2 2 2 2 2 1 1 1 1 1 1 1 1 1 2 3 4 4 4 4 5 5 5 5
6 6 6 6 6 5 4 3 3 2 1 1 1 1 1 1 2 2 2 2 2 2 2 2 1 1 1 1 1 1 0 0 0 1 3 4 3 3 4 5 5 5 5

GEFSGL_con_maxscp_216.txt.gz
SCP
15 15 13 10 9 10 11 13 14 11 8 7 7 9 9 7 5 5 4 4 4 4 4 4 4 4 4 3 3 3 3 3 3 3 3 4 5 6 5 5 4 4 3
18 17 15 12 11 11 12 12 11 9 8 7 7 9 8 7 5 5 4 4 4 5 5 5 5 5 5 4 4 4 4 4 4 3 3 4 5 7 7 6 5 4 4
20 20 18 15 13 11 11 9 8 7 7 7 7 8 8 7 6 5 5 5 5 5 5 5 6 6 6 6 6 6 5 5 5 5 5 5 6 7 9 8 7 5 4
21 22 20 16 12 10 8 7 6 6 6 6 6 7 7 7 6 5 5 5 5 5 5 5 6 6 7 7 7 7 7 6 6 6 6 7 7 7 9 9 8 6 4
21 21 19 16 11 9 7 7 6 6 6 7 7 7 7 6 5 5 5 5 5 5 5 5 5 5 6 6 7 7 7 7 7 7 7 8 8 7 9 10 9 6 4
17 17 16 13 10 9 7 7 7 8 8 8 9 9 8 5 4 4 4 5 5 5 6 6 6 5 5 5 5 5 6 7 7 7 8 9 9 8 8 10 9 6 3
14 13 12 11 10 9 8 8 8 9 9 11 12 11 8 5 3 3 4 5 6 6 7 7 7 6 6 6 5 4 5 6 6 7 8 9 10 9 9 10 8 5 3
12 11 10 10 9 9 9 9 9 9 10 13 13 11 8 5 3 3 4 6 7 7 7 7 7 6 6 6 5 5 5 6 5 6 7 8 9 9 9 9 7 4 2
11 10 10 9 9 9 9 10 10 10 11 11 10 8 7 6 4 2 4 6 8 8 7 7 6 5 5 4 5 5 6 6 5 5 6 6 7 8 8 7 4 3 2
10 11 11 11 11 10 9 10 10 10 9 8 7 7 7 7 4 2 3 7 8 8 7 6 5 4 3 3 4 6 7 7 6 6 5 5 5 6 5 4 3 2 2
14 15 15 13 11 9 9 9 10 9 8 7 7 7 7 7 4 2 3 6 8 9 8 6 5 4 3 2 3 5 6 7 8 7 6 4 4 4 3 3 3 3 3
20 19 15 11 8 7 8 10 10 9 8 7 8 8 8 7 5 3 3 5 8 10 9 7 5 3 2 1 2 3 4 6 7 8 6 5 4 3 3 3 3 4 4
21 18 13 9 7 8 9 10 10 8 7 8 8 9 9 9 7 5 3 3 6 9 9 6 3 2 1 1 1 2 3 5 6 7 6 5 5 5 5 4 4 4 4
14 13 10 8 9 10 10 10 10 10 9 8 9 10 11 11 10 7 4 4 6 8 6 4 3 2 1 2 2 3 4 5 6 7 6 6 6 6 6 6 6 6 5
9 8 8 9 10 11 9 8 9 10 10 9 9 10 11 12 10 8 6 6 7 6 5 4 4 3 2 3 4 5 5 6 7 7 7 7 7 7 8 8 7 6 6
7 7 8 9 10 9 6 5 5 6 6 6 7 8 9 8 7 5 5 6 5 4 4 5 5 5 4 4 4 5 6 7 7 8 9 9 8 7 7 8 7 6 5
7 7 8 10 10 7 4 3 3 3 3 3 4 4 4 3 2 2 2 2 2 2 4 5 6 5 5 4 4 5 6 7 7 8 9 9 7 6 5 6 6 5 4
6 6 7 10 9 6 4 4 4 5 4 3 2 1 1 0 0 0 0 1 1 2 4 5 5 5 5 5 5 5 6 7 7 7 7 7 6 5 4 4 4 3 3
5 5 7 9 7 4 3 4 6 6 5 4 4 2 1 0 0 0 1 2 3 3 3 3 4 5 6 6 5 6 6 7 7 7 6 6 6 5 4 4 4 3 3
4 5 6 6 5 3 3 4 6 5 4 4 4 3 1 1 1 1 2 3 3 3 3 3 3 4 5 6 6 6 7 7 6 6 6 6 5 5 5 5 5 4 4
5 5 4 4 3 3 3 4 5 4 3 3 3 2 2 1 2 2 3 3 3 4 4 3 4 4 5 5 6 7 6 6 5 5 5 5 5 5 5 5 5 4 4
6 5 3 3 2 2 2 3 4 3 2 2 2 1 1 2 2 2 3 3 4 4 5 5 5 5 5 5 6 6 5 4 4 5 5 5 4 3 3 3 4 4 3
5 4 3 2 2 2 2 3 3 2 2 2 2 2 2 2 3 3 3 4 4 5 6 7 7 6 5 5 5 5 4 4 4 3 4 4 3 2 2 2 2 2 2
4 3 3 2 2 2 2 2 2 2 2 3 3 3 3 4 4 4 4 5 5 5 6 9 9 7 5 4 4 4 4 3 3 2 2 3 3 2 1 1 1 1 1
2 2 3 3 3 2 2 2 2 3 3 4 5 5 5 5 5 5 5 5 5 5 6 9 10 8 6 4 4 3 3 2 1 1 2 2 3 2 2 1 1 0 0
2 2 3 3 3 3 2 2 3 3 4 5 6 6 6 6 5 5 5 4 3 4 6 9 10 9 6 5 4 3 2 1 1 1 2 2 3 3 2 1 1 0 0

GEFSGL_con_maxscp_222.txt.gz
SCP
8 8 8 8 8 8 7 6 5 4 5 4 3 2 2 2 2 3 3 3 2 2 2 2 2 2 2 2 2 2 2 2 1 1 1 1 0 0 0 1 1 1 1
8 9 9 8 8 8 7 6 5 5 4 4 3 3 2 2 2 2 3 4 3 3 2 2 2 2 2 2 2 2 2 2 2 1 1 1 1 0 1 1 1 1 1
10 9 9 7 7 7 7 6 5 5 5 4 3 3 3 2 2 2 3 4 5 4 3 2 2 2 2 2 2 2 2 2 2 2 2 1 1 1 1 1 1 1 1
11 10 8 6 5 6 7 6 5 5 4 4 4 4 3 3 2 2 3 4 5 5 4 3 3 2 2 2 2 2 3 3 3 3 2 2 2 2 2 2 2 2 1
11 10 8 7 5 6 7 7 6 5 4 4 4 4 3 3 2 2 3 4 5 5 5 4 3 3 2 2 2 2 2 2 2 2 2 2 1 2 3 3 3 2 2
12 11 10 8 7 6 7 8 7 5 4 4 4 4 4 3 2 2 3 4 5 5 5 5 4 3 2 2 2 2 1 1 1 2 2 2 1 1 2 3 3 3 2
14 13 12 10 9 9 21 29 19 6 5 5 4 4 4 3 2 2 2 3 4 5 6 6 5 4 2 2 2 2 2 1 1 1 1 1 1 1 2 3 3 3 3
16 16 14 11 10 11 30 48 28 7 7 7 5 4 4 3 2 1 2 3 5 5 6 7 6 5 3 2 2 2 2 2 2 2 2 1 1 1 2 3 3 3 3
18 18 15 13 11 11 21 28 19 7 7 7 5 4 4 3 2 1 2 3 5 6 7 7 7 6 3 2 2 2 3 3 2 2 2 2 1 1 1 2 3 3 2
21 20 16 12 10 9 7 6 6 7 7 7 5 4 4 3 2 1 2 3 5 7 8 8 7 5 2 1 2 2 3 3 3 2 2 1 1 1 1 1 2 2 2
21 18 14 9 7 7 6 5 5 6 7 7 6 4 4 3 2 1 2 3 5 7 8 8 7 4 1 1 1 2 2 2 3 3 3 2 2 2 2 1 2 2 2
16 13 10 8 6 5 4 4 5 6 7 7 6 5 4 4 3 2 1 2 5 7 8 9 6 3 1 0 1 1 1 1 2 3 4 4 4 3 3 2 1 2 2
9 9 9 8 7 5 4 4 5 6 7 7 6 5 4 4 4 3 1 1 3 6 8 8 5 2 1 0 0 0 1 1 1 2 3 4 4 4 3 2 2 2 2
5 6 8 9 7 5 4 4 5 6 7 7 6 5 4 4 4 4 2 1 3 5 8 8 5 2 1 1 0 0 0 1 2 2 3 3 3 4 4 3 3 3 3
3 4 6 8 7 5 3 3 5 6 6 5 5 4 4 4 4 3 2 2 4 7 9 9 7 4 3 2 1 0 0 1 1 2 2 2 3 3 3 4 4 4 4
3 3 4 5 6 5 3 2 3 4 3 3 3 3 4 4 3 2 1 2 3 6 10 11 10 7 5 3 2 1 1 1 1 2 2 2 3 3 3 3 3 3 3
2 2 3 3 5 5 4 3 2 2 1 1 1 2 3 2 1 1 0 1 1 4 9 11 11 8 6 4 3 2 2 1 1 2 2 2 3 3 4 3 3 2 2
1 2 2 2 4 5 5 3 3 2 1 0 0 1 1 1 0 0 0 1 2 4 8 10 10 8 6 4 3 2 2 2 2 2 2 2 3 4 4 4 3 2 2
1 1 1 2 3 4 5 4 3 2 1 1 0 0 0 0 0 0 1 2 3 5 7 9 9 7 5 3 3 2 2 2 2 2 2 2 3 4 4 4 3 3 2
1 1 1 1 2 4 4 4 3 2 1 0 0 0 0 0 0 0 1 3 4 5 7 8 8 6 4 2 2 2 2 2 2 2 2 2 2 3 3 3 3 3 3
1 1 0 1 1 3 3 3 3 2 1 0 0 0 0 0 0 0 1 3 4 5 6 7 7 4 3 1 1 1 2 2 2 2 2 1 2 2 2 2 2 3 3
0 0 0 0 1 2 3 3 3 2 1 0 0 0 0 0 0 1 2 3 4 4 5 5 5 3 2 1 1 1 1 2 2 2 2 1 1 1 2 2 2 2 2
0 0 0 0 1 1 2 2 2 2 1 0 0 0 0 0 1 1 2 3 3 3 3 3 2 1 1 1 1 1 2 2 2 2 1 1 1 1 1 1 1 1 2
0 0 0 0 1 1 2 2 2 2 1 1 0 0 0 1 1 2 2 2 2 2 1 1 1 1 1 1 1 2 2 3 2 2 1 1 1 1 1 1 1 1 1
0 0 0 1 1 2 3 3 3 2 2 1 1 1 1 1 1 1 2 1 1 1 0 0 1 1 1 1 2 2 2 2 1 1 1 1 1 1 1 1 1 1 1
0 0 0 0 1 2 4 5 4 3 2 2 1 1 1 1 1 1 1 1 1 1 1 1 1 1 1 2 2 2 2 1 0 1 1 1 1 1 1 1 1 1 1

GEFSGL_con_maxscp_228.txt.gz
SCP
8 8 9 8 8 8 7 7 6 6 5 5 4 4 3 3 3 3 3 3 3 3 3 4 4 4 5 5 4 3 2 2 2 2 2 2 1 1 1 1 1 1 1
8 8 7 7 6 6 5 5 5 5 5 4 4 4 3 3 3 3 3 3 3 3 3 3 3 4 4 4 4 3 2 2 2 2 2 2 2 1 1 1 1 1 1
7 7 6 5 4 4 4 4 4 4 4 4 4 4 4 3 3 3 3 3 3 2 2 2 2 3 3 3 3 3 2 2 2 2 2 2 2 2 2 2 1 1 1
7 7 6 4 4 3 3 3 3 3 4 4 5 5 4 4 3 3 3 3 2 2 2 2 2 2 3 3 3 2 2 2 2 2 2 2 3 2 2 2 2 2 2
8 7 5 4 4 4 4 3 3 3 3 4 5 5 5 4 4 3 3 3 3 3 3 2 3 3 3 3 2 2 2 2 2 2 2 3 3 2 2 2 2 2 2
7 6 4 4 4 5 5 4 3 3 3 5 6 6 5 5 4 3 3 4 4 4 3 3 3 3 3 3 2 2 2 2 2 2 2 2 2 2 2 2 2 2 2
6 5 4 4 5 6 6 4 3 3 4 5 5 6 5 5 4 3 3 4 5 5 4 4 3 3 3 3 2 2 2 2 2 2 2 1 1 2 1 1 1 1 1
6 5 5 6 7 7 6 5 4 4 4 5 5 5 5 5 4 2 2 4 5 5 4 4 4 3 3 3 3 3 3 2 2 1 1 1 1 1 1 1 1 1 1
6 6 7 7 8 8 7 6 5 5 5 5 4 4 4 4 3 2 2 3 5 4 4 4 4 3 3 3 4 4 4 3 2 1 1 1 1 1 1 1 1 1 1
7 7 7 9 9 9 9 8 7 6 6 5 4 4 4 4 3 2 2 4 5 4 4 3 3 2 2 3 4 4 4 4 3 2 1 1 1 1 1 1 1 1 1
8 8 8 9 11 11 11 10 8 6 6 5 5 4 3 3 2 1 1 3 4 4 3 3 2 1 1 2 3 5 5 4 3 2 2 2 2 1 1 1 1 1 2
8 8 8 10 12 12 11 9 6 6 6 6 5 4 3 3 2 1 1 2 3 4 4 3 2 1 1 1 2 5 5 5 4 3 2 2 2 2 1 1 1 1 2
8 9 9 10 11 10 8 6 5 5 6 6 5 4 3 3 3 2 1 1 1 3 3 3 1 1 0 1 2 4 5 6 5 4 3 3 3 2 2 2 1 1 1
10 11 10 10 8 6 5 4 4 5 5 5 5 4 3 3 3 2 2 1 1 2 2 2 1 0 0 1 2 4 6 8 7 5 4 4 3 3 2 2 2 2 1
10 10 8 7 6 5 4 4 3 4 4 4 3 3 3 3 3 3 2 1 1 1 1 1 1 1 1 1 3 5 7 8 7 6 5 4 3 3 3 2 2 2 2
8 7 6 5 5 5 4 3 2 2 2 2 2 2 2 2 2 1 1 1 1 1 1 1 1 2 1 2 3 6 7 8 7 6 5 4 4 3 2 2 2 2 2
5 5 4 4 4 5 4 3 2 1 1 0 0 0 1 1 0 0 0 0 0 0 1 1 2 2 2 2 3 6 7 8 7 5 4 4 4 4 3 2 2 2 2
3 3 2 2 3 4 4 4 3 2 1 0 0 0 0 0 0 0 0 0 0 1 2 2 3 3 3 2 3 6 8 8 7 4 3 3 4 4 4 3 2 2 2
2 1 1 1 1 2 3 4 3 3 2 1 0 0 0 0 0 0 0 0 0 1 2 2 3 3 3 2 3 6 8 9 7 5 3 2 3 4 4 3 2 2 2
1 0 0 0 0 1 3 3 4 3 2 2 1 0 0 0 0 0 0 0 0 1 1 2 2 2 1 2 3 6 8 9 7 5 3 2 2 2 3 3 2 2 2
0 0 0 0 0 0 1 2 3 3 3 2 1 1 0 0 0 0 0 0 0 0 0 0 1 1 1 2 3 6 8 8 6 4 3 2 2 2 2 2 2 2 2
0 0 0 0 0 0 0 1 2 2 2 2 2 1 0 0 0 0 0 0 0 0 0 0 0 0 1 2 4 6 8 7 5 3 2 2 2 2 2 2 2 2 2
0 0 0 0 0 0 0 0 1 1 2 3 2 1 0 0 0 0 0 0 0 0 0 0 0 1 1 2 4 5 7 6 4 3 2 2 2 2 2 2 2 3 3
0 0 0 0 0 0 0 0 0 1 1 2 2 2 1 0 0 0 0 0 0 0 0 0 0 1 1 2 3 5 5 5 3 2 2 2 2 2 2 2 3 3 3
0 0 0 0 0 0 0 0 0 0 1 1 2 1 1 0 0 0 0 0 0 0 0 0 0 1 1 2 3 4 3 2 2 1 1 2 2 2 3 3 2 2 3
0 0 0 0 0 0 0 0 0 0 1 1 1 1 1 1 0 0 0 0 0 0 0 0 1 1 2 2 3 3 2 1 1 1 1 1 2 2 3 3 2 2 2

GEFSGL_con_maxscp_234.txt.gz
SCP
5 5 5 4 3 3 3 3 3 3 3 3 3 4 4 3 3 3 3 4 5 5 5 4 3 2 2 2 2 2 2 2 2 1 2 2 2 2 2 2 2 2 3
5 5 5 5 4 3 3 4 4 4 4 4 4 4 4 4 3 3 3 4 5 5 5 4 4 3 2 2 2 2 2 3 3 2 2 3 3 2 2 2 2 2 2
6 6 6 6 6 5 5 6 6 6 5 6 6 6 6 5 4 4 4 4 5 6 6 5 5 4 3 3 2 2 2 3 3 3 3 3 3 3 3 3 2 2 2
8 7 7 8 7 7 8 8 8 8 8 8 8 8 7 6 5 5 5 5 6 7 7 6 6 5 4 3 3 3 3 3 3 3 3 3 4 4 4 3 3 2 2
10 10 10 9 9 8 8 8 8 9 10 9 8 7 7 6 5 5 5 6 7 7 7 7 6 5 4 3 3 3 3 3 3 3 3 4 4 4 4 4 3 3 3
13 12 11 10 9 8 8 9 9 10 10 9 7 7 6 4 4 4 5 6 7 8 8 7 6 5 4 3 2 2 3 3 3 4 4 5 6 6 5 5 5 4 4
13 12 10 9 9 9 9 9 10 11 9 8 6 6 5 4 3 3 4 6 8 8 8 8 7 6 5 5 4 3 3 3 3 4 5 6 7 8 7 6 6 6 5
11 11 9 9 9 9 9 10 12 12 10 8 6 5 5 4 3 2 3 5 8 8 8 8 8 7 6 5 5 5 4 3 2 3 4 6 7 8 9 8 8 7 7
10 10 9 9 9 8 8 10 12 12 11 8 7 6 6 5 3 1 2 5 8 7 7 7 8 7 5 5 5 5 5 3 2 2 3 4 5 6 8 9 9 7 6
9 9 9 9 9 9 9 10 11 12 10 8 7 8 8 6 3 1 2 6 8 7 6 6 6 5 4 3 4 5 4 3 3 3 2 3 3 4 6 9 9 7 6
9 9 9 9 9 9 11 11 11 11 9 8 8 9 8 6 3 1 2 6 7 6 6 5 4 3 2 2 3 4 3 3 3 3 4 4 4 5 6 8 9 7 5
9 9 8 8 9 10 12 12 11 10 9 8 9 9 8 5 3 2 2 4 5 5 5 5 4 2 1 0 1 2 2 2 3 4 5 5 6 6 6 8 8 6 5
8 8 9 9 10 11 12 11 11 10 9 9 9 9 7 5 4 3 2 1 2 3 4 4 3 1 0 0 1 1 1 2 3 4 4 5 6 6 6 6 6 5 4
6 7 10 11 11 11 11 12 13 12 12 10 9 8 7 6 5 4 2 2 2 2 3 3 2 1 1 1 1 1 1 2 3 3 4 4 4 5 6 5 4 4 4
5 6 9 11 10 9 10 12 14 14 12 10 9 8 6 5 3 2 2 2 2 2 2 2 2 2 2 2 2 2 2 2 3 4 4 4 4 4 5 5 5 4 4
4 4 6 9 9 8 10 12 11 9 7 6 6 5 4 3 1 1 1 1 1 2 2 2 3 3 3 4 4 3 3 3 4 5 5 5 4 4 5 6 5 5 4
3 3 4 6 7 9 11 11 7 4 2 2 2 2 1 1 0 0 0 0 0 1 2 2 3 4 4 4 4 4 4 4 6 7 7 6 6 5 5 5 6 5 4
2 2 3 5 6 9 11 10 8 5 2 1 1 0 0 0 0 0 0 0 1 1 2 2 3 4 4 4 3 3 3 4 6 8 9 8 7 6 5 5 5 5 4
1 1 2 4 5 6 8 8 8 6 4 2 2 1 0 0 0 0 0 1 1 1 2 2 2 3 3 2 2 2 2 2 5 8 9 8 7 6 5 5 5 5 4
1 1 2 2 3 4 5 5 5 4 3 3 3 2 1 1 1 1 1 1 1 2 2 2 2 2 2 1 1 1 1 2 4 6 8 8 7 6 5 5 5 5 5
1 1 1 1 2 3 3 2 2 2 2 2 2 2 1 1 2 2 1 1 1 2 2 1 2 2 2 1 1 1 1 1 2 4 5 6 6 6 5 5 5 5 5
1 1 1 1 1 1 2 1 1 1 1 1 1 1 1 2 2 2 2 1 1 2 2 2 2 2 1 1 1 1 1 1 1 2 2 3 3 4 4 5 5 4 4
1 1 1 1 1 1 1 1 0 0 0 0 0 1 1 2 2 3 2 1 1 1 1 2 1 1 1 2 2 1 1 1 1 0 1 1 1 2 3 3 4 4 3
2 2 1 1 1 1 0 0 0 0 0 0 0 1 1 2 3 3 2 2 1 1 1 1 1 1 1 1 1 1 1 0 0 1 1 1 1 1 1 2 3 3 3
1 1 1 1 1 0 0 0 0 0 0 0 0 1 1 2 2 2 2 2 1 1 1 1 1 1 1 1 1 1 1 0 0 0 1 1 1 1 1 1 2 3 2
1 1 1 1 1 0 0 0 0 0 0 0 0 0 1 1 2 2 2 1 1 1 1 1 1 1 1 1 1 1 1 0 0 0 1 1 1 1 1 2 2 3 2

GEFSGL_con_maxscp_240.txt.gz
SCP
20 21 20 19 17 15 12 9 6 5 4 5 5 6 6 5 5 5 4 4 3 3 3 3 4 5 5 5 4 5 6 6 5 3 3 3 3 4 3 3 3 2 3
17 18 18 17 15 12 9 7 6 5 5 5 6 6 6 7 7 6 5 4 4 4 3 3 4 4 5 6 5 5 6 7 6 5 4 4 4 4 4 3 3 2 2
13 13 12 12 10 9 8 7 6 6 6 6 6 6 7 7 8 7 5 4 4 4 4 4 4 4 5 6 7 7 7 7 7 6 5 5 5 5 4 4 3 2 2
12 11 11 11 10 9 9 9 8 7 6 7 7 7 7 7 8 7 6 5 5 5 5 4 4 4 5 6 8 9 9 8 8 7 7 8 7 5 5 5 4 3 2
14 14 16 17 15 13 12 10 9 8 7 8 8 8 8 7 7 7 6 6 6 6 6 6 5 5 5 5 7 8 9 10 9 8 9 11 7 5 5 5 4 3 3
17 18 20 22 21 17 13 10 9 9 9 9 10 10 10 8 6 6 6 6 7 7 7 7 6 6 5 5 5 6 7 9 9 8 8 8 6 4 4 4 4 4 4
21 22 24 25 24 20 14 10 9 9 10 10 11 11 11 8 6 4 4 5 6 7 8 7 7 6 5 6 6 6 6 6 7 7 6 5 4 4 4 4 4 4 4
22 23 24 24 23 18 14 10 9 9 10 11 12 12 11 10 7 4 3 4 6 8 7 7 6 6 5 6 8 8 8 6 4 4 4 4 3 3 3 4 4 4 5
16 17 17 17 16 14 12 11 10 10 11 11 12 13 12 12 9 5 3 5 7 8 6 5 5 5 4 5 7 9 9 7 4 2 2 2 2 2 2 3 4 4 4
11 11 11 11 11 11 11 11 11 11 11 11 12 12 11 12 11 6 4 6 9 7 5 4 4 3 3 3 5 7 8 7 5 3 2 2 2 1 2 2 3 3 3
9 9 8 8 8 9 10 11 11 11 11 11 11 10 9 10 11 7 4 7 8 6 5 5 4 2 2 2 4 6 6 6 6 4 3 3 2 2 2 2 3 3 3
10 9 9 8 8 9 9 9 10 10 10 11 11 9 8 8 10 8 5 4 5 6 7 6 4 2 1 1 2 3 4 4 5 4 3 3 3 3 3 3 3 4 4
10 9 9 9 9 10 9 9 8 9 9 10 10 9 8 8 10 10 6 3 2 4 6 5 2 1 0 1 1 1 2 3 3 3 3 3 3 3 2 2 3 3 4
9 8 8 8 8 9 9 9 9 9 9 9 9 8 8 9 11 11 10 6 3 3 3 3 2 1 1 1 1 1 1 2 3 3 2 2 3 3 2 3 3 3 4
7 7 7 7 7 7 8 8 8 7 7 7 7 8 8 9 10 11 11 9 5 3 2 2 3 2 2 2 2 1 2 2 3 3 2 2 3 3 3 3 4 4 4
7 7 7 7 6 6 6 6 5 4 3 3 4 5 7 9 8 7 7 7 4 2 2 3 3 3 2 2 2 2 2 3 3 3 2 3 3 3 3 3 3 3 3
6 6 6 5 5 4 4 4 3 2 1 1 1 2 4 5 4 2 2 2 2 1 2 2 2 2 3 3 3 2 2 3 3 3 3 3 3 3 3 3 3 2 3
4 4 4 4 3 3 3 3 2 2 2 2 2 1 1 1 1 0 0 1 1 1 2 2 2 2 3 3 3 3 2 2 3 3 3 3 3 3 3 2 2 2 2
4 4 3 3 2 2 2 2 2 1 3 4 3 2 1 1 1 0 1 2 3 2 2 2 1 2 2 3 4 4 3 2 2 2 3 3 3 3 2 2 1 1 1
3 3 2 2 2 2 2 1 1 1 2 3 3 2 2 2 2 2 2 3 3 2 2 2 1 1 2 3 4 5 4 3 2 2 2 3 3 3 2 2 1 1 1
2 2 1 1 1 1 1 1 1 1 1 2 2 1 1 2 4 4 4 4 3 2 2 1 1 2 3 4 4 4 4 3 2 2 2 3 3 2 2 2 1 1 1
1 1 1 1 1 1 1 1 1 1 1 1 1 1 1 2 4 5 4 3 3 2 2 1 1 2 3 3 3 4 4 3 2 2 2 2 2 2 2 1 1 1 1
1 1 1 1 1 2 2 1 1 1 1 1 1 0 1 1 3 4 4 3 2 1 1 1 1 1 2 2 2 3 3 3 2 2 2 2 2 1 1 1 1 1 1
2 1 1 1 1 2 2 1 1 1 1 1 0 0 1 1 2 3 3 2 1 1 1 1 1 1 1 1 1 2 2 2 2 2 2 2 1 1 1 1 1 1 1
2 2 1 2 2 2 2 1 1 1 1 1 1 1 1 1 1 2 2 3 2 2 1 1 0 0 0 1 1 1 1 1 1 1 2 2 1 1 1 1 1 1 1
1 1 1 2 2 2 2 1 1 1 1 1 1 1 1 1 1 1 2 3 4 3 2 1 0 0 0 1 1 1 1 0 0 1 1 2 1 1 1 1 1 1 1

GEFSGL_con_maxscp_246.txt.gz
SCP
5 4 4 4 3 3 3 3 4 4 3 3 3 3 3 2 2 2 1 1 1 1 1 1 1 1 1 1 1 1 1 2 2 1 1 1 1 1 1 1 1 1 1
6 5 4 4 4 3 3 3 3 3 3 3 3 3 3 3 2 2 2 1 1 1 1 1 1 1 1 1 1 1 1 2 2 1 1 1 2 2 1 1 1 1 1
7 6 5 4 4 4 3 3 3 3 3 3 4 4 4 4 3 3 3 2 2 2 1 1 1 1 1 1 1 2 2 2 2 2 2 2 2 2 2 2 1 1 1
10 8 7 6 5 6 5 4 4 4 4 4 4 4 4 4 4 4 4 3 2 2 2 2 1 1 1 2 2 2 2 2 2 2 2 2 2 2 2 2 2 1 1
11 10 9 8 8 8 7 6 5 5 5 5 5 5 5 5 6 6 6 4 3 2 2 2 2 2 2 2 2 2 3 3 3 3 3 3 2 2 2 2 2 1 1
11 11 10 11 10 9 8 7 7 6 6 5 5 5 6 6 7 7 7 5 4 2 2 1 2 2 2 2 2 2 2 3 3 3 3 3 3 3 2 2 1 1 1
10 10 12 13 12 10 9 9 9 9 8 7 6 6 6 7 6 6 6 5 4 3 2 2 1 2 2 2 2 2 2 2 2 3 3 4 4 3 2 1 1 1 1
8 9 11 12 12 10 10 10 11 12 11 9 8 7 8 7 5 4 4 4 3 3 3 2 2 2 2 2 2 2 2 2 2 2 2 3 3 3 2 1 1 1 1
6 7 8 9 9 10 10 10 12 13 12 10 9 9 9 8 5 3 3 4 3 3 2 3 2 2 1 2 2 2 2 1 1 1 1 2 2 2 1 1 1 1 1
4 4 5 6 8 9 9 9 10 11 10 9 8 8 8 6 3 2 3 4 3 2 2 2 2 1 1 1 1 1 1 1 1 1 1 1 1 1 1 1 1 1 1
5 4 4 6 8 10 9 8 8 8 8 7 7 7 6 5 2 1 2 3 3 1 1 1 2 1 1 1 1 1 1 1 1 0 1 1 1 1 1 1 1 1 1
6 6 6 6 8 9 9 8 8 8 8 8 7 7 7 5 3 1 1 2 2 1 1 1 1 1 1 1 1 1 1 1 1 0 0 0 1 1 1 1 1 1 1
7 7 6 5 6 7 7 8 8 8 8 8 7 7 8 7 4 1 1 1 1 1 1 1 1 1 1 1 1 1 1 1 1 1 1 1 0 1 1 1 0 1 1
6 6 5 4 4 4 5 6 6 6 7 6 6 6 7 7 5 3 2 1 1 1 1 1 1 1 1 1 1 1 1 1 1 1 1 1 0 0 0 0 1 1 1
6 5 4 4 4 3 3 3 3 4 4 4 4 4 5 6 6 4 3 2 2 2 1 1 1 1 1 1 1 1 1 1 1 1 1 1 0 0 0 1 1 1 1
6 5 4 3 3 3 2 2 1 2 2 2 2 2 3 4 4 2 2 2 2 1 1 1 1 1 1 1 2 1 1 0 0 1 1 1 1 0 0 1 1 1 1
5 4 3 3 2 2 2 1 1 1 1 0 0 0 1 2 2 1 0 1 0 0 1 1 2 2 2 2 2 2 1 0 0 1 1 1 1 1 1 1 1 1 1
3 3 3 2 2 2 2 2 2 1 1 0 0 0 0 0 0 0 0 0 0 0 1 2 2 2 2 2 3 3 2 1 1 1 1 1 1 1 1 1 1 0 0
2 2 2 2 2 2 2 2 2 1 1 0 0 0 0 0 0 0 0 0 0 0 1 2 3 3 2 2 2 3 3 1 1 1 1 1 1 1 1 1 0 0 0
1 1 1 1 2 2 2 3 3 2 1 0 0 0 0 0 0 0 0 0 0 0 1 3 4 5 3 2 1 3 3 2 1 1 1 1 1 1 1 1 1 0 0
1 1 1 1 1 1 2 2 2 1 1 0 0 0 0 0 0 0 0 0 0 0 1 3 5 5 4 2 1 2 3 2 1 1 1 1 1 1 1 1 1 1 1
2 1 1 1 1 1 2 2 2 1 0 0 0 0 0 0 0 0 0 0 0 0 1 3 5 5 3 1 0 1 3 2 1 1 1 1 1 1 1 1 1 1 1
2 2 2 1 1 1 1 1 1 0 0 0 0 0 0 0 0 0 0 0 0 0 1 2 4 4 2 1 0 1 2 2 1 0 0 1 1 1 1 1 1 1 1
3 3 2 1 1 1 1 1 1 0 0 0 0 0 0 0 0 0 0 0 0 0 0 1 2 2 1 0 0 1 2 2 1 0 0 0 1 1 1 1 1 1 1
2 2 2 2 1 1 1 1 1 1 1 0 0 0 0 0 0 0 0 0 0 0 0 0 1 0 0 0 0 1 1 1 0 0 0 0 0 0 1 1 1 1 1
2 2 2 1 1 1 1 1 1 1 1 1 0 0 0 0 0 0 0 0 0 0 0 0 0 0 0 0 1 1 1 0 0 0 0 0 0 0 0 0 0 0 1